ARIANE 40 R/B

Last updated on Thu Oct 30 2025 00:02:15 GMT+0000 (Coordinated Universal Time)

1 22830U 93061H 25302.48289382 .00000334 00000+0 13843-3 0 9991 2 22830 98.5129 8.8072 0009838 316.7999 43.2413 14.32759595675317
UTC large
Height (km)
Speed (km/s)
/
Latitude / Longitude
Inclination (degrees)
Orbital Period (minutes)
Azimuth
Elevation
Range (km)
Doppler Factor

Next 0 passes for location: London (51.5072 / 0.1276)

Sorry there are no passes over London.